Regional Weather Roundup
Issued by NWS

Home | Current Version | Previous Version | Text Only | Print | Product List | Glossary Off
Versions: 1 2 3 4 5 6 7 8 9 10 11 12 13 14 15 16 17 18 19 20 21 22 23 24 25 26 27 28 29 30 31 32 33 34 35 36 37 38 39 40 41 42 43 44 45 46 47 48 49 50

000
ASUS43 KLMK 101202
RWRKY
KENTUCKY REGIONAL WEATHER ROUNDUP
NATIONAL WEATHER SERVICE LOUISVILLE KY
700 AM EST WED FEB 10 2016

NOTE "FAIR" INDICATES FEW OR NO CLOUDS BELOW 12,000 FEET
WITH NO SIGNIFICANT WEATHER AND/OR OBSTRUCTIONS TO VISIBILITY.

KYZ001>023-026-027-061>063-070>075-101300-
WESTERN AND SOUTH CENTRAL KENTUCKY

CITY           SKY/WX    TMP DP  RH WIND       PRES   REMARKS
PADUCAH        MOCLDY    18   6  59 NW9       30.19R WCI   7
HENDERSON      CLOUDY    16   7  67 NW14      30.14F WCI   1
OWENSBORO      FLURRIES  16   8  70 NW14      30.13S WCI   2
HOPKINSVILLE   NOT AVBL
BOWLING GREEN  CLEAR     16   7  67 W15       30.14R WCI   1
GLASGOW        NOT AVBL
$$

KYZ024-025-028>034-038-045-046-053-101300-
NORTH CENTRAL KENTUCKY

CITY           SKY/WX    TMP DP  RH WIND       PRES   REMARKS
LOUISVILLE/SDF LGT SNOW  17  10  74 W14       30.06R WCI   3
LOUISVILLE/LOU LGT SNOW  17  12  80 W13G20    30.06R WCI   4
FORT KNOX      CLOUDY    16   7  67 W12       30.04R WCI   3
$$

KYZ035>037-039>044-047>052-055>060-089>105-101300-
NORTHEAST KENTUCKY

CITY           SKY/WX    TMP DP  RH WIND       PRES   REMARKS
LEXINGTON      LGT SNOW  16  10  77 NW10      29.99R WCI   4
COVINGTON      LGT SNOW  15  11  83 W12       29.96R FOG     WCI   2
FRANKFORT      CLOUDY    16   8  71 W3        30.00R
$$

KYZ054-064>069-076>088-106>120-101300-
SOUTHEAST KENTUCKY

CITY           SKY/WX    TMP DP  RH WIND       PRES   REMARKS
JACKSON        CLOUDY    16   7  67 W9G16     29.96R WCI   4
LONDON         CLOUDY    15   9  76 W9        30.00R WCI   3
SOMERSET       NOT AVBL
MIDDLESBORO    CLOUDY    18  10  70 NW3       30.02R
MONTICELLO     FLURRIES  18  13  80 W18       30.05S WCI   2
$$




USA.gov is the U.S. government's official web portal to all federal, state and local government web resources and services.